FENGYUN 1C DEB, 30043

Orbit data source: Space-Track

FENGYUN 1C DEB, 30043 is space debris in SSO originally from a launch on Mon, 10 May 1999 UTC launched from the Taiyaun Space Center, China (TSC). Fengyun 1C debris stems from the Chinese weather satellite Fengyun-1C, which was intentionally destroyed by a Chinese anti-satellite missile in 2007. This event dramatically increased the amount of space debris, with thousands of trackable fragments posing hazards to satellites and human spaceflight. The Fengyun 1C debris cloud has become a focal point in discussions about space sustainability and the need for international regulations to prevent the creation of new debris.

Loading next visibility...
Identifier
30043, 1999-025NU
Orbit
SSO
Country
Flag of CNCN / PRC
Related business
Manufacturer
Unknown
Mission
Spacecraft
Bus & Motor
Unknown
Mass
Unknown
Launch date (UTC)
1999-05-10 (27 years ago)
Launch vehicle
Unknown
Launch site
Taiyaun Space Center, China (TSC)
Object type
Payload
Rocket body
Debris
Shape & HBR
Unknown shape, 0.1 m
Radar Cross Section
Medium (>0.1 m² and <1 m²)

Expand to show TLE details & history
Last TLE update: 9 hours ago

TLE from 9 hours ago
0 FENGYUN 1C DEB
1 30043U 99025NU  26170.52428938  .00000938  00000-0  28622-3 0  9995
2 30043  98.6284 270.2347 0278538 301.4069  56.0141 14.24456286   256
Epoch: 2026-06-19T12:34Z
TLE epoch observation values (Epoch: 2026-06-19T12:34:58.602Z)
Latitude
-0.00005°
Longitude
173.7385°
Altitude
705.228 km
Speed
7.559 km/s
True Right ascension
18h 00m 56s
True Declination
0° 00' 00"
Sunlit
Object was in full shadow at epoch
Visualization orbit readout
Latitude
Unknown
Longitude
Unknown
Altitude
Unknown
Speed
Unknown
Apparent Right ascension
Unknown
Apparent Declination
Unknown
Sunlit
N/A
Visualization observer readout
Local Sidereal Time
08:48:41
Azimuth
Unknown
Elevation
Unknown
Doppler factor
Unknown
Orbital elements
Apogee altitude
1,007.613 km
Perigee altitude
607.32 km
Semi-major axis
7,185.604 km
Eccentricity
0.02785
Inclination
98.6284°
RAAN
270.2347°
Arg. of periapsis
301.4069°
True anomaly
58.71216°
Mean anomaly
56.0141°
Eccentric anomaly
57.35794°
Mean motion
3.56327 °/min
Orbital period
101.03 mins
BSTAR
0.00028622
Loading maneuver chart data...
Computing Atmospheric mass density...

Documentation

Showing up to 5 results
|